DateTimeUTC,F1_A11,F1_S11,BsB_S11,BsG_S11,BsR_S11,BbsB_S11,BbsG_S11,BbsR_S11,BaB_A11,BaG_A11,BaR_A11,Tu_S11,T_S11,Uu_S11,U_S11,P_S11,T1_A11
2021-11-04T13:00:00Z,00000200,21000000,,,,,,,-000.11,0000.18,-000.44,18.5,25.7,,00.0,0648.6,31.1
2021-11-04T13:01:00Z,00000200,21000000,,,,,,,0000.20,0000.32,0000.21,18.5,25.7,,00.0,0648.6,31.1
2021-11-04T13:02:00Z,00000200,21000000,,,,,,,-000.19,-000.63,-000.09,18.5,25.7,,00.0,0648.6,31.1
2021-11-04T13:03:00Z,00000200,61000000,,,,,,,-000.11,0000.56,0000.33,18.5,25.7,,00.0,0648.6,31.1
2021-11-04T13:04:00Z,00000200,41000000,-000.70,0000.07,0000.05,0000.52,0000.06,0000.12,0000.30,-000.01,0000.06,18.5,25.5,,00.0,0649.5,31.1
2021-11-04T13:05:00Z,00000200,01000000,-000.20,0000.07,0000.53,0000.23,-000.08,-000.08,0000.52,0000.13,-000.27,18.6,25.4,,00.0,0649.6,31.1
2021-11-04T13:06:00Z,00000200,01000000,-000.77,0000.13,0000.35,0000.66,0000.22,0000.15,-000.42,-000.02,0000.19,18.7,25.5,,00.0,0649.6,31.1
2021-11-04T13:07:00Z,00000200,01000000,0000.61,0000.05,0000.29,0000.68,-000.00,0000.11,0000.19,0000.14,-000.08,18.8,25.5,,00.0,0649.6,31.2
2021-11-04T13:08:00Z,00000200,01000000,-000.15,0000.28,0000.20,0000.38,-000.08,0000.40,-000.12,-000.21,0000.26,18.8,25.5,,00.0,0649.6,31.1
2021-11-04T13:09:00Z,00000200,01000000,-000.49,0000.02,0000.48,-000.01,-000.11,0000.25,-000.05,0000.18,-000.02,18.9,25.5,,00.0,0649.6,31.2
2021-11-04T13:10:00Z,00000200,01000000,-000.83,-000.06,0000.20,0000.40,0000.01,-000.05,0000.21,-000.12,-000.20,19.0,25.6,,00.0,0649.6,31.2
2021-11-04T13:11:00Z,00000200,01000000,-000.56,-000.12,0000.41,-000.27,-000.18,0000.20,-000.22,-000.06,0000.01,19.1,25.6,,00.0,0649.7,31.2
2021-11-04T13:12:00Z,00000200,01000000,-000.37,0000.10,0000.26,0000.02,0000.24,0000.33,-000.42,-000.25,-000.12,19.1,25.6,,00.0,0649.7,31.2
2021-11-04T13:13:00Z,00000200,01000000,-000.49,0000.24,0000.11,0000.43,0000.13,0000.08,-000.20,-000.60,-000.20,19.1,25.6,,00.0,0649.7,31.2
2021-11-04T13:14:00Z,00000200,01000000,-000.64,-000.13,0000.58,-000.56,0000.00,0000.24,-000.08,0000.05,-000.27,19.0,25.6,,00.0,0649.7,31.1
2021-11-04T13:15:00Z,00000200,01000000,-000.08,0000.10,0000.38,0000.66,0000.20,-000.04,-000.43,0000.10,0000.06,18.9,25.6,,00.0,0649.6,31.1
2021-11-04T13:16:00Z,00000200,01000000,-000.05,0000.41,0000.38,0000.35,-000.05,0000.13,0000.48,0000.00,-000.27,18.8,25.5,,00.0,0649.6,31.1
2021-11-04T13:17:00Z,00000200,01000000,0000.26,0000.13,0000.01,0000.98,-000.09,-000.08,-000.10,-000.27,0000.13,18.7,25.5,,00.0,0649.6,31.1
2021-11-04T13:18:00Z,00000200,01000000,-000.28,-000.19,0000.26,0000.82,-000.29,0000.39,0000.04,0000.22,-000.03,18.7,25.4,,00.0,0649.6,31.1
2021-11-04T13:19:00Z,00000200,01000000,-000.10,0000.03,-000.12,0000.79,0000.35,0000.13,-000.09,-000.10,0000.03,18.7,25.4,,00.0,0649.6,31.1
2021-11-04T13:20:00Z,00000200,01000000,-000.29,-000.20,0000.17,0000.16,0000.22,0000.47,0000.31,0000.34,0000.34,18.8,25.4,,00.0,0649.6,31.1
2021-11-04T13:21:00Z,00000200,01000000,-000.35,0000.21,0000.14,-000.28,0000.00,-000.00,-000.09,-000.04,-000.02,18.8,25.5,,00.0,0649.6,31.1
2021-11-04T13:22:00Z,00000200,01000000,-000.79,0000.30,0000.13,0000.51,-000.03,-000.24,0000.04,0000.23,0000.07,18.9,25.5,,00.0,0649.6,31.1
2021-11-04T13:23:00Z,00000200,01000000,-000.42,0000.18,0000.22,0000.61,-000.09,0000.19,0000.02,-000.13,-000.25,19.0,25.6,,00.0,0649.6,31.1
2021-11-04T13:24:00Z,00000200,01000000,-000.88,0000.25,0000.45,0000.45,-000.18,-000.11,0000.05,0000.19,0000.39,19.1,25.6,,00.0,0649.7,31.1
2021-11-04T13:25:00Z,00000200,01000000,0000.07,-000.09,0000.53,0000.49,0000.11,0000.27,0000.04,-000.14,0000.14,19.2,25.6,,00.0,0649.7,31.2
2021-11-04T13:26:00Z,00000200,01000000,-001.13,0000.43,0000.29,0000.10,0000.11,0000.16,-000.22,0000.16,-000.34,19.2,25.7,,00.0,0649.7,31.2
2021-11-04T13:27:00Z,00000200,01000000,-001.17,-000.08,0000.71,-000.04,0000.12,-000.04,0000.02,-000.21,0000.10,19.2,25.7,,00.0,0649.7,31.1
2021-11-04T13:28:00Z,00000200,01000000,0000.23,0000.29,0000.25,0000.86,0000.02,-000.15,-000.37,-000.15,-000.48,19.1,25.7,,00.0,0649.7,31.1
2021-11-04T13:29:00Z,00000200,01000000,-001.10,0000.56,0000.42,0000.46,-000.07,-000.02,0000.19,-000.10,-000.26,19.0,25.6,,00.0,0649.7,31.1
2021-11-04T13:30:00Z,00000200,01000000,-000.46,0000.38,0000.30,0000.63,0000.19,0000.35,0000.02,-000.06,0000.59,19.0,25.6,,00.0,0649.8,31.1
2021-11-04T13:31:00Z,00000200,01000000,-000.80,0000.38,0000.54,0000.48,0000.12,0000.11,0000.31,0000.15,-000.26,18.9,25.5,,00.0,0649.8,31.1
2021-11-04T13:32:00Z,00000200,01000000,-000.19,-000.02,0000.45,-000.02,-000.05,0000.25,-000.17,-000.12,0000.27,18.8,25.5,,00.0,0649.8,31.1
2021-11-04T13:33:00Z,00000200,01000000,-000.16,0000.16,0000.16,0000.60,-000.29,0000.05,0000.18,0000.22,-000.17,18.8,25.4,,00.0,0649.8,31.1
2021-11-04T13:34:00Z,00000200,01000000,-000.60,0000.12,-000.15,0000.44,-000.09,-000.01,0000.14,0000.38,0000.23,18.8,25.4,,00.0,0649.7,31.1
2021-11-04T13:35:00Z,00000200,01000000,-000.46,0000.06,-000.13,-000.17,-000.21,-000.09,0000.33,0000.09,-000.03,18.8,25.4,,00.0,0649.7,31.1
2021-11-04T13:36:00Z,00000200,01000000,0000.12,-000.32,0000.17,-000.15,0000.10,-000.08,-000.12,-000.06,0000.22,18.9,25.5,,00.0,0649.7,31.1
2021-11-04T13:37:00Z,00000200,01000000,-001.33,0000.05,0000.43,0000.52,0000.04,0000.33,0000.03,0000.05,0000.11,18.9,25.5,,00.0,0649.7,31.1
2021-11-04T13:38:00Z,00000200,01000000,-000.48,0000.03,0000.19,-000.18,0000.09,0000.05,-000.02,-000.20,0000.11,19.0,25.5,,00.0,0649.6,31.1
2021-11-04T13:39:00Z,00000200,01000000,-000.67,-000.18,0000.23,0000.21,0000.03,-000.15,0000.02,0000.40,-000.17,19.1,25.6,,00.0,0649.6,31.2
2021-11-04T13:40:00Z,00000200,01000000,-000.44,-000.03,0000.01,0000.59,0000.06,-000.03,-000.02,-000.15,-000.09,19.1,25.6,,00.0,0649.7,31.2
2021-11-04T13:41:00Z,00000200,01000000,-000.55,0000.17,-000.21,0000.13,0000.15,-000.21,0000.37,0000.28,0000.30,19.2,25.6,,00.0,0649.7,31.2
2021-11-04T13:42:00Z,00000200,01000000,-000.09,0000.20,0000.32,0000.25,0000.19,0000.29,-000.16,0000.33,0000.29,19.2,25.6,,00.0,0649.7,31.2
2021-11-04T13:43:00Z,00000200,01000000,-000.38,-000.23,0000.18,0000.73,0000.46,-000.04,0000.42,-000.45,-000.14,19.2,25.7,,00.0,0649.7,31.1
2021-11-04T13:44:00Z,00000200,01000000,0001.02,-000.00,0000.05,0000.69,0000.00,0000.23,-000.23,0000.18,-000.12,19.1,25.6,,00.0,0649.7,31.1
2021-11-04T13:45:00Z,00000200,01000000,0000.02,0000.16,0000.38,0000.26,-000.13,0000.13,0000.07,-000.02,-000.09,19.0,25.5,,00.0,0649.7,31.1
2021-11-04T13:46:00Z,00000200,01000000,0000.05,0000.24,0000.46,-000.16,-000.21,0000.10,0000.12,-000.17,0000.24,18.9,25.5,,00.0,0649.7,31.1
2021-11-04T13:47:00Z,00000200,01000000,-000.17,-000.05,0000.38,-000.04,0000.15,-000.19,-000.20,0000.22,0000.10,18.8,25.5,,00.0,0649.7,31.1
2021-11-04T13:48:00Z,00000200,01000000,-000.16,0000.04,0000.09,0000.07,0000.17,-000.29,0000.28,-000.07,0000.09,18.8,25.4,,00.0,0649.7,31.1
2021-11-04T13:49:00Z,00000200,01000000,0000.01,0000.07,0000.62,0000.57,-000.12,0000.20,-000.19,0000.30,-000.23,18.8,25.4,,00.0,0649.7,31.1
2021-11-04T13:50:00Z,00000200,01000000,-000.69,-000.05,0000.14,0000.31,-000.17,0000.12,0000.37,-000.20,0000.29,18.8,25.4,,00.0,0649.7,31.1
2021-11-04T13:51:00Z,00000200,01000000,0000.06,-000.25,-000.02,0000.03,0000.05,0000.23,0000.10,0000.39,0000.22,18.9,25.4,,00.0,0649.7,31.1
2021-11-04T13:52:00Z,00000200,01000000,0000.83,0000.19,-000.04,0000.40,-000.20,-000.10,0000.41,0000.25,0000.19,18.9,25.5,,00.0,0649.7,31.1
2021-11-04T13:53:00Z,00000200,01000000,-000.31,0000.00,0000.44,0000.14,-000.16,0000.11,-000.03,0000.26,-000.17,19.0,25.5,,00.0,0649.7,31.1
2021-11-04T13:54:00Z,00000200,01000000,-001.17,-000.08,0000.23,-000.71,0000.11,0000.27,-000.09,-000.52,0000.08,19.1,25.6,,00.0,0649.8,31.2
2021-11-04T13:55:00Z,00000200,01000000,-000.88,-000.07,-000.07,0000.47,-000.03,0000.16,0000.13,0000.16,-000.04,19.1,25.6,,00.0,0649.8,31.2
2021-11-04T13:56:00Z,00000200,01000000,-000.24,-000.03,0000.11,0000.71,0000.01,0000.33,-000.06,0000.24,-000.04,19.1,25.6,,00.0,0649.7,31.2
2021-11-04T13:57:00Z,00000200,41000000,,,,,,,0000.19,0000.22,0000.31,19.2,25.7,,00.0,0649.7,31.2
2021-11-04T13:58:00Z,00000200,61000000,,,,,,,-000.15,-000.24,-000.27,18.7,25.7,,00.0,0648.8,31.1
2021-11-04T13:59:00Z,00000200,21000000,,,,,,,-000.11,-000.49,-000.19,18.7,25.8,,00.0,0648.8,31.1
